Temp
18 18 18 18 18 18 19 18 18 19 19 20 20 20 20 20 20 20 19 19 19 19 19 19 18 18 18 17 17 17 18 18 18
18 18 18 18 18 18 18 18 18 18 19 20 20 20 20 20 20 19 19 19 18 18 18 18 18 18 18 18 17 17 17 18 18
18 17 17 17 17 18 18 18 18 18 19 19 20 20 19 19 19 19 19 19 18 18 18 18 18 18 18 18 18 17 17 17 17
17 17 17 17 17 17 17 17 17 18 18 19 19 19 20 19 19 19 18 18 18 18 18 18 18 18 18 18 18 18 18 17 17
17 17 17 17 17 17 17 17 17 18 18 18 18 19 19 19 19 18 18 18 18 18 18 18 18 18 18 18 18 18 18 17 17
16 17 16 16 16 16 16 17 17 17 18 18 18 18 18 18 18 18 18 18 17 18 18 18 18 18 17 17 17 17 17 17 17
16 17 16 16 16 16 16 16 16 16 17 17 17 18 18 18 18 18 18 18 17 17 17 18 17 17 17 16 17 17 16 17 17
16 16 16 15 15 15 16 16 15 16 17 17 17 17 18 17 18 18 17 17 17 17 17 17 17 16 16 16 16 17 16 17 17
16 16 16 16 15 15 15 15 15 16 16 17 17 16 17 17 17 17 17 17 16 17 17 17 16 16 16 16 17 17 17 17 17
16 16 17 16 16 16 15 15 16 16 16 16 16 15 16 17 17 16 16 16 16 16 16 16 16 16 15 16 16 17 17 17 17
15 16 16 16 16 15 15 15 15 16 15 15 15 14 15 16 16 16 16 16 16 16 16 16 16 16 15 16 16 16 16 16 16
14 15 15 15 16 16 15 14 15 15 15 14 14 14 14 14 14 15 16 16 16 16 16 16 16 15 15 15 15 16 16 16 16
13 14 14 14 15 15 15 14 15 15 14 14 13 13 14 14 14 14 15 16 16 16 16 16 16 16 15 15 15 15 15 15 15
13 13 13 14 14 14 14 14 14 14 14 14 13 13 15 14 14 14 14 14 15 15 16 16 16 16 16 15 15 15 14 15 15
12 13 13 13 13 13 13 13 13 13 13 13 13 12 14 13 13 13 14 14 14 15 15 15 16 15 15 15 15 15 15 14 14
12 12 12 12 13 13 12 12 12 12 12 13 13 12 12 13 13 13 13 14 13 14 14 15 15 15 15 15 15 14 14 13 14
10 10 10 11 12 12 12 12 12 11 12 12 11 9 11 13 13 13 13 13 13 13 13 14 14 15 14 14 14 14 13 13 14
8 8 9 9 10 10 11 12 12 11 12 11 12 9 8 9 11 12 12 11 11 12 12 14 14 13 14 14 14 14 13 13 13
6 6 7 7 8 9 9 10 10 11 11 11 11 11 11 8 8 11 11 11 10 11 11 12 13 13 13 13 13 13 13 13 13
2 3 4 5 5 6 7 8 8 9 10 11 11 11 10 10 9 7 9 10 10 10 10 11 11 12 12 13 13 13 13 13 13
Height
842 842 842 842 842 843 842 843 843 843 844 844 845 845 845 845 846 846 848 848 849 849 851 851 852 853 854 855 854 854 855 856 855
843 844 843 844 845 845 845 845 845 845 846 847 847 847 847 848 848 849 850 851 851 853 853 854 854 855 855 857 857 857 858 858 857
844 845 845 846 846 845 846 846 846 847 848 849 848 849 849 849 849 849 851 852 853 854 854 856 856 856 857 858 859 859 860 860 860
844 844 845 846 846 847 847 848 848 848 849 850 850 850 850 850 851 851 853 854 855 855 856 857 857 857 859 860 860 861 861 862 862
843 844 845 846 846 847 848 849 849 849 850 851 851 851 850 852 853 854 855 856 856 856 856 857 857 859 859 861 861 861 862 863 863
844 844 845 846 847 849 850 850 850 849 851 852 852 851 853 853 854 855 856 857 857 857 857 858 859 859 860 861 862 862 863 864 864
845 844 845 846 847 850 850 850 850 851 853 854 853 853 854 855 854 856 857 858 858 859 859 859 860 860 860 862 863 864 864 864 865
846 845 846 848 849 850 851 850 853 852 854 855 855 855 855 856 856 857 858 858 859 859 859 860 860 861 862 862 863 863 863 864 865
847 847 848 848 850 851 851 852 853 854 855 856 856 856 857 857 858 859 860 859 860 859 860 860 861 861 862 863 863 864 864 865 865
847 847 848 849 849 850 851 853 853 855 856 856 856 857 858 858 860 860 861 861 860 860 860 861 861 862 862 863 863 864 865 865 866
848 848 848 849 850 851 852 854 854 855 857 856 856 857 858 859 860 861 861 861 861 860 860 861 861 862 862 862 863 864 865 865 866
848 849 849 850 851 852 853 854 854 856 858 858 857 858 859 859 860 861 861 861 861 861 861 861 861 862 862 863 863 864 864 865 866
849 850 850 851 852 853 854 855 854 855 857 858 858 857 858 858 860 859 860 861 862 862 861 862 862 862 863 863 863 863 864 864 865
851 851 852 852 852 854 854 855 855 855 856 857 857 857 857 858 858 859 860 860 861 862 861 862 862 862 862 862 862 863 863 864 864
851 852 852 852 853 853 854 854 855 855 856 857 857 857 857 857 857 857 857 858 859 860 861 861 861 861 861 862 862 862 863 864 864
852 852 852 852 852 853 854 853 854 853 854 855 856 856 855 855 855 855 855 856 857 858 859 859 860 860 861 861 862 862 863 863 864
851 851 851 851 852 852 852 853 853 853 854 855 856 856 853 852 851 852 852 854 854 855 856 856 858 859 859 860 861 861 862 863 864
853 853 852 852 851 851 851 851 851 852 852 854 855 857 856 852 848 847 848 850 851 852 852 853 855 855 856 857 858 859 860 861 862
855 854 853 853 852 851 851 851 850 850 850 851 852 852 852 853 852 847 847 847 847 848 848 849 850 852 853 854 855 856 857 859 860
858 856 855 853 852 851 850 849 849 849 849 848 849 848 848 849 849 849 846 845 845 844 844 844 845 846 848 849 851 852 854 855 856
Wind_Speed
11 11 11 9 9 9 10 10 11 11 12 13 12 13 11 12 12 11 11 12 14 14 15 15 16 15 17 16 17 17 17 17 18
6 8 9 8 8 8 8 9 10 8 10 10 11 13 15 10 12 12 11 11 13 13 14 15 15 16 15 15 15 15 15 15 16
5 6 7 6 6 6 6 7 7 7 8 9 9 11 12 12 12 12 10 9 12 12 12 12 13 13 13 12 12 13 13 14 14
4 5 6 5 4 4 5 6 4 5 7 8 8 8 10 10 9 11 10 9 10 10 12 11 10 12 12 11 11 10 11 12 12
2 3 7 6 5 3 5 5 3 3 7 7 6 8 10 10 9 11 8 8 9 10 11 11 11 11 11 10 9 8 8 8 9
5 4 4 6 5 5 4 5 3 3 8 5 10 12 11 9 9 8 6 6 8 8 9 9 10 11 10 9 8 7 8 8 8
6 7 3 5 5 6 5 5 7 10 7 5 11 10 7 8 9 4 5 4 6 8 8 10 11 11 10 11 11 10 10 9 8
2 6 5 7 7 8 7 8 6 6 7 4 6 10 6 7 8 5 3 4 4 6 7 8 10 9 10 11 10 8 10 9 7
1 2 3 3 7 7 7 8 10 5 6 8 6 7 6 8 6 6 6 4 5 4 6 9 8 9 10 9 9 9 9 8 8
1 3 6 4 6 4 7 9 7 3 2 3 5 5 5 6 6 6 6 6 4 4 3 7 8 10 9 8 9 8 8 8 7
1 3 5 5 3 5 8 8 6 2 4 4 3 4 8 6 6 6 6 5 5 3 4 7 10 9 8 8 8 9 8 8 7
2 4 4 3 4 7 3 5 4 6 5 5 4 4 7 8 7 6 4 4 3 2 0 4 8 10 9 8 9 9 9 9 8
2 1 3 4 4 7 6 5 5 7 9 8 7 5 6 7 8 7 6 4 2 1 1 2 5 7 7 9 10 10 10 10 9
2 3 2 3 4 6 6 8 7 9 9 7 8 8 10 9 9 9 8 8 6 5 4 3 5 7 8 10 10 11 12 12 12
4 4 4 3 4 5 6 8 8 9 10 10 11 11 12 12 11 11 11 10 10 10 8 6 7 8 9 11 13 15 16 16 13
7 5 5 4 5 5 7 8 7 7 9 7 10 14 15 15 15 15 12 13 13 14 12 10 9 10 11 13 15 14 15 14 13
12 11 11 9 5 7 8 10 7 7 8 3 2 3 4 13 19 20 19 18 16 15 16 14 13 13 13 15 16 17 16 14 13
15 12 10 9 10 12 8 9 12 10 10 11 6 1 3 4 5 13 21 18 19 18 17 17 17 17 17 16 20 20 19 15 15
17 15 14 12 10 8 10 11 11 14 15 15 17 17 5 2 4 4 7 12 19 23 23 22 24 21 21 20 22 23 23 18 16
21 19 17 16 15 14 11 10 11 12 17 18 17 16 21 15 6 4 5 9 13 18 24 24 25 26 25 24 25 25 27 24 18
Wind_Direction
102 100 94 85 78 77 83 90 87 90 95 102 88 72 84 97 91 94 95 101 105 109 110 114 114 107 100 96 93 93 93 96 94
113 110 95 86 85 82 84 94 103 95 96 103 92 70 74 97 87 90 103 103 98 103 112 119 117 109 104 100 95 93 90 90 94
134 132 115 103 85 79 76 89 97 104 99 98 102 74 62 99 97 80 97 110 113 111 115 116 117 116 112 104 101 99 94 91 90
165 145 151 128 115 116 96 97 104 118 110 99 108 80 77 87 92 92 91 98 113 123 120 118 119 122 121 112 105 104 100 96 89
156 174 163 149 137 126 116 107 92 104 119 106 94 67 99 106 105 102 107 102 105 119 126 131 130 129 126 123 120 112 106 105 107
71 51 164 174 164 153 143 119 105 103 122 104 54 94 101 113 108 106 104 108 114 117 121 135 136 134 134 126 107 106 112 112 111
46 24 159 171 172 178 149 106 88 111 123 115 75 102 101 89 97 79 98 105 119 130 133 139 141 139 134 124 127 131 131 131 117
102 66 96 160 158 151 135 116 118 120 135 155 89 102 116 82 87 93 96 102 125 138 146 149 147 143 134 138 152 144 134 140 130
114 170 133 108 168 164 130 120 131 145 164 168 205 98 117 94 88 88 83 106 121 134 151 152 157 142 141 143 146 143 144 143 136
143 91 156 160 178 155 148 161 186 192 354 200 180 133 136 120 122 102 89 87 110 142 164 181 158 153 148 158 155 154 153 148 145
189 206 126 155 157 166 177 201 190 169 307 291 225 171 156 167 156 134 113 93 78 95 167 200 175 170 158 163 169 167 164 161 159
299 239 209 166 187 211 188 206 178 236 251 281 223 209 182 178 179 177 164 131 96 49 69 179 196 169 170 177 182 182 181 178 173
16 348 246 249 206 220 236 241 220 235 244 256 243 227 229 208 206 206 216 235 225 170 30 188 187 196 194 187 187 189 187 183 176
11 17 330 295 259 217 232 238 255 251 241 236 255 243 247 246 235 227 232 226 240 245 209 239 231 221 223 208 194 183 171 164 153
347 359 359 314 256 262 254 261 253 247 240 243 264 264 249 254 251 249 247 244 231 240 240 231 258 249 227 211 183 162 156 160 162
26 1 6 330 267 262 249 263 248 214 224 242 262 270 260 254 261 252 255 250 245 239 237 234 241 253 230 205 198 178 165 166 169
33 26 23 18 329 269 261 249 237 218 223 232 271 301 290 254 257 258 250 252 257 258 245 241 237 240 236 215 201 190 174 172 172
37 27 16 9 11 0 325 268 257 249 243 228 224 322 243 317 283 249 247 246 247 249 252 248 248 235 233 229 206 202 194 185 178
28 23 18 13 3 349 350 341 282 269 258 247 242 246 245 191 319 316 277 256 251 250 248 247 251 244 234 226 229 208 201 197 186
20 16 8 3 359 352 342 333 331 283 266 262 254 256 246 242 214 261 273 265 267 263 253 246 248 241 236 231 227 218 206 209 201